Time,TemperatureF,DewpointF,PressureIn,WindDirection,WindDirectionDegrees,WindSpeedMPH,WindSpeedGustMPH,Humidity,HourlyPrecipIn,Conditions,Clouds,dailyrainin,SoftwareType,DateUTC
2013-02-01 00:01:00,45.5,41.9,30.29,SE,137,0.0,0.0,87,0.00,,SKC,0.00,VWS V13.01,2013-02-01 08:01:00,
2013-02-01 00:11:00,45.4,41.8,30.29,SE,129,0.0,0.0,87,0.00,,SKC,0.00,VWS V13.01,2013-02-01 08:11:00,
2013-02-01 00:21:00,45.4,41.8,30.29,SE,125,0.0,0.0,87,0.00,,SKC,0.00,VWS V13.01,2013-02-01 08:21:00,
2013-02-01 00:31:00,45.4,41.8,30.29,ESE,120,0.0,0.0,87,0.00,,SKC,0.00,VWS V13.01,2013-02-01 08:31:00,
2013-02-01 00:41:00,45.4,41.8,30.29,East,88,0.0,0.0,87,0.00,,SKC,0.00,VWS V13.01,2013-02-01 08:41:00,
2013-02-01 00:51:00,45.2,41.6,30.29,ESE,113,0.0,0.0,87,0.00,,SKC,0.00,VWS V13.01,2013-02-01 08:51:00,
2013-02-01 01:01:00,44.9,41.3,30.29,ESE,109,0.0,0.0,87,0.00,,SKC,0.00,VWS V13.01,2013-02-01 09:01:00,
2013-02-01 01:11:00,44.9,41.3,30.29,ESE,119,0.0,0.0,87,0.00,,SKC,0.00,VWS V13.01,2013-02-01 09:11:00,
2013-02-01 01:21:00,44.9,41.3,30.29,ESE,116,0.0,0.0,87,0.00,,SKC,0.00,VWS V13.01,2013-02-01 09:21:00,
2013-02-01 01:31:00,44.9,41.3,30.28,SE,127,0.0,0.0,87,0.00,,SKC,0.00,VWS V13.01,2013-02-01 09:31:00,
2013-02-01 01:41:00,44.9,41.0,30.28,SE,134,0.0,0.0,86,0.00,,SKC,0.00,VWS V13.01,2013-02-01 09:41:00,
2013-02-01 01:51:00,44.9,41.0,30.28,SE,136,0.0,0.0,86,0.00,,SKC,0.00,VWS V13.01,2013-02-01 09:51:00,
2013-02-01 02:01:00,44.9,41.0,30.28,SE,141,0.0,0.0,86,0.00,,SKC,0.00,VWS V13.01,2013-02-01 10:01:00,
2013-02-01 02:11:00,44.9,41.0,30.28,SE,132,0.0,0.0,86,0.00,,SKC,0.00,VWS V13.01,2013-02-01 10:11:00,
2013-02-01 02:21:00,44.9,40.7,30.27,ESE,106,0.0,0.0,85,0.00,,SKC,0.00,VWS V13.01,2013-02-01 10:21:00,
2013-02-01 02:31:00,44.8,40.6,30.27,ESE,107,0.0,0.0,85,0.00,,SKC,0.00,VWS V13.01,2013-02-01 10:31:00,
2013-02-01 02:41:00,44.8,40.6,30.27,SSE,149,0.0,0.0,85,0.00,,SKC,0.00,VWS V13.01,2013-02-01 10:41:00,
2013-02-01 02:51:00,44.8,40.6,30.27,SSE,167,0.0,0.0,85,0.00,,SKC,0.00,VWS V13.01,2013-02-01 10:51:00,
2013-02-01 03:01:00,44.8,40.6,30.27,ESE,118,0.0,0.0,85,0.00,,SKC,0.00,VWS V13.01,2013-02-01 11:01:00,
2013-02-01 03:11:00,44.8,40.6,30.27,ESE,117,0.0,0.0,85,0.00,,SKC,0.00,VWS V13.01,2013-02-01 11:11:00,
2013-02-01 03:21:00,44.6,40.4,30.27,East,99,0.0,0.0,85,0.00,,SKC,0.00,VWS V13.01,2013-02-01 11:21:00,
2013-02-01 03:31:00,44.6,40.4,30.26,ENE,75,0.0,0.0,85,0.00,,SKC,0.00,VWS V13.01,2013-02-01 11:31:00,
2013-02-01 03:41:00,44.8,40.3,30.26,ESE,115,0.0,0.0,84,0.00,,SKC,0.00,VWS V13.01,2013-02-01 11:41:00,
2013-02-01 03:51:00,44.6,40.1,30.27,ESE,112,0.0,0.0,84,0.00,,SKC,0.00,VWS V13.01,2013-02-01 11:51:00,
2013-02-01 04:01:00,44.5,40.0,30.27,ESE,122,0.0,0.0,84,0.00,,SKC,0.00,VWS V13.01,2013-02-01 12:01:00,
2013-02-01 04:11:00,44.2,39.7,30.27,ESE,110,0.0,0.0,84,0.00,,SKC,0.00,VWS V13.01,2013-02-01 12:11:00,
2013-02-01 04:21:00,44.1,39.6,30.27,East,98,0.0,0.0,84,0.00,,SKC,0.00,VWS V13.01,2013-02-01 12:21:00,
2013-02-01 04:31:00,43.8,39.6,30.27,ESE,103,0.0,0.0,85,0.00,,SKC,0.00,VWS V13.01,2013-02-01 12:31:00,
2013-02-01 04:41:00,43.5,39.3,30.27,ENE,75,0.0,0.0,85,0.00,,SKC,0.00,VWS V13.01,2013-02-01 12:41:00,
2013-02-01 04:51:00,42.9,38.7,30.27,East,96,0.0,0.0,85,0.00,,SKC,0.00,VWS V13.01,2013-02-01 12:51:00,
2013-02-01 05:01:00,42.3,38.4,30.28,East,81,0.0,0.0,86,0.00,,SKC,0.00,VWS V13.01,2013-02-01 13:01:00,
2013-02-01 05:11:00,41.9,38.0,30.28,ENE,70,0.0,0.0,86,0.00,,SKC,0.00,VWS V13.01,2013-02-01 13:11:00,
2013-02-01 05:21:00,41.6,38.0,30.28,East,86,0.0,0.0,87,0.00,,SKC,0.00,VWS V13.01,2013-02-01 13:21:00,
2013-02-01 05:31:00,41.6,38.0,30.28,East,83,0.0,0.0,87,0.00,,SKC,0.00,VWS V13.01,2013-02-01 13:31:00,
2013-02-01 05:41:00,41.6,38.0,30.28,East,93,0.0,0.0,87,0.00,,SKC,0.00,VWS V13.01,2013-02-01 13:41:00,
2013-02-01 05:51:00,41.5,37.9,30.27,ESE,105,0.0,0.0,87,0.00,,SKC,0.00,VWS V13.01,2013-02-01 13:51:00,
2013-02-01 06:01:00,41.2,37.6,30.26,East,96,0.0,0.0,87,0.00,,SKC,0.00,VWS V13.01,2013-02-01 14:01:00,
2013-02-01 06:11:00,41.1,37.8,30.26,SE,141,0.0,0.0,88,0.00,,SKC,0.00,VWS V13.01,2013-02-01 14:11:00,
2013-02-01 06:21:00,40.9,37.6,30.27,East,93,0.0,0.0,88,0.00,,SKC,0.00,VWS V13.01,2013-02-01 14:21:00,
2013-02-01 06:31:00,40.6,37.3,30.27,East,93,0.0,0.0,88,0.00,,SKC,0.00,VWS V13.01,2013-02-01 14:31:00,
2013-02-01 06:41:00,40.6,37.3,30.27,ESE,117,0.0,0.0,88,0.00,,SKC,0.00,VWS V13.01,2013-02-01 14:41:00,
2013-02-01 06:51:00,40.3,37.0,30.27,ESE,109,0.0,0.0,88,0.00,,SKC,0.00,VWS V13.01,2013-02-01 14:51:00,
2013-02-01 07:01:00,40.1,36.8,30.27,ESE,112,0.0,0.0,88,0.00,,SKC,0.00,VWS V13.01,2013-02-01 15:01:00,
2013-02-01 07:11:00,39.8,36.5,30.27,ESE,122,0.0,0.0,88,0.00,,SKC,0.00,VWS V13.01,2013-02-01 15:11:00,
2013-02-01 07:21:00,39.5,36.2,30.27,SE,125,0.0,0.0,88,0.00,,SKC,0.00,VWS V13.01,2013-02-01 15:21:00,
2013-02-01 07:31:00,39.2,36.0,30.27,SE,125,0.0,0.0,88,0.00,,SKC,0.00,VWS V13.01,2013-02-01 15:31:00,
2013-02-01 07:41:00,38.9,35.7,30.27,SSE,155,0.0,0.0,88,0.00,,SKC,0.00,VWS V13.01,2013-02-01 15:41:00,
2013-02-01 07:51:00,38.8,35.6,30.27,SE,127,0.0,0.0,88,0.00,,SKC,0.00,VWS V13.01,2013-02-01 15:51:00,
2013-02-01 08:01:00,38.9,35.7,30.27,SE,127,0.0,0.0,88,0.00,,SKC,0.00,VWS V13.01,2013-02-01 16:01:00,
2013-02-01 08:11:00,39.1,36.1,30.27,SE,127,0.0,0.0,89,0.00,,SKC,0.00,VWS V13.01,2013-02-01 16:11:00,
2013-02-01 08:21:00,39.3,36.3,30.27,SE,133,0.0,0.0,89,0.00,,SKC,0.00,VWS V13.01,2013-02-01 16:21:00,
2013-02-01 08:31:00,39.8,36.8,30.27,SE,133,0.0,0.0,89,0.00,,SKC,0.00,VWS V13.01,2013-02-01 16:31:00,
2013-02-01 08:41:00,40.2,37.2,30.27,SE,133,0.0,0.0,89,0.00,,SKC,0.00,VWS V13.01,2013-02-01 16:41:00,
2013-02-01 08:51:00,40.9,37.6,30.28,SE,133,0.0,0.0,88,0.00,,SKC,0.00,VWS V13.01,2013-02-01 16:51:00,
2013-02-01 09:01:00,41.5,37.9,30.28,SE,125,0.0,0.0,87,0.00,,SKC,0.00,VWS V13.01,2013-02-01 17:01:00,
2013-02-01 09:11:00,42.2,38.6,30.28,SE,133,0.0,0.0,87,0.00,,SKC,0.00,VWS V13.01,2013-02-01 17:11:00,
2013-02-01 09:21:00,42.9,39.0,30.28,SE,133,0.0,0.0,86,0.00,,SKC,0.00,VWS V13.01,2013-02-01 17:21:00,
2013-02-01 09:31:00,43.6,39.1,30.29,WNW,290,0.0,0.0,84,0.00,,SKC,0.00,VWS V13.01,2013-02-01 17:31:00,
2013-02-01 09:41:00,43.9,39.1,30.29,WNW,290,0.0,0.0,83,0.00,,SKC,0.00,VWS V13.01,2013-02-01 17:41:00,
2013-02-01 09:51:00,43.9,38.8,30.29,WNW,290,0.0,0.0,82,0.00,,SKC,0.00,VWS V13.01,2013-02-01 17:51:00,
2013-02-01 10:01:00,44.2,39.1,30.29,WNW,290,0.0,0.0,82,0.00,,SKC,0.00,VWS V13.01,2013-02-01 18:01:00,
2013-02-01 10:11:00,44.6,39.1,30.29,NNW,330,0.0,0.0,81,0.00,,SKC,0.00,VWS V13.01,2013-02-01 18:11:00,
2013-02-01 10:21:00,45.1,39.6,30.29,NW,326,0.0,0.0,81,0.00,,SKC,0.00,VWS V13.01,2013-02-01 18:21:00,
2013-02-01 10:31:00,45.4,39.6,30.29,NNW,328,0.0,0.0,80,0.00,,SKC,0.00,VWS V13.01,2013-02-01 18:31:00,
2013-02-01 10:41:00,46.0,40.5,30.29,NNW,330,0.0,0.0,81,0.00,,SKC,0.00,VWS V13.01,2013-02-01 18:41:00,
2013-02-01 10:51:00,46.1,40.6,30.29,NW,326,0.0,0.0,81,0.00,,SKC,0.00,VWS V13.01,2013-02-01 18:51:00,
2013-02-01 11:01:00,45.7,40.8,30.28,North,0,0.0,0.0,83,0.00,,SKC,0.00,VWS V13.01,2013-02-01 19:01:00,
2013-02-01 11:11:00,45.7,41.2,30.28,NNE,18,0.0,0.0,84,0.00,,SKC,0.00,VWS V13.01,2013-02-01 19:11:00,
2013-02-01 11:21:00,45.8,41.2,30.28,North,4,0.0,0.0,84,0.00,,SKC,0.00,VWS V13.01,2013-02-01 19:21:00,
2013-02-01 11:31:00,46.2,41.6,30.28,NNW,335,0.0,0.0,84,0.00,,SKC,0.00,VWS V13.01,2013-02-01 19:31:00,
2013-02-01 11:41:00,46.5,42.2,30.28,WNW,297,0.0,0.0,85,0.00,,SKC,0.00,VWS V13.01,2013-02-01 19:41:00,
2013-02-01 11:51:00,46.8,42.5,30.27,North,0,0.0,0.0,85,0.00,,SKC,0.00,VWS V13.01,2013-02-01 19:51:00,
2013-02-01 12:01:00,47.1,42.5,30.26,North,358,0.0,0.0,84,0.00,,SKC,0.00,VWS V13.01,2013-02-01 20:01:00,
2013-02-01 12:11:00,47.3,42.7,30.26,North,0,0.0,0.0,84,0.00,,SKC,0.00,VWS V13.01,2013-02-01 20:11:00,
2013-02-01 12:21:00,47.6,42.7,30.26,North,0,0.0,0.0,83,0.00,,SKC,0.00,VWS V13.01,2013-02-01 20:21:00,
2013-02-01 12:31:00,47.9,43.0,30.25,North,0,0.0,0.0,83,0.00,,SKC,0.00,VWS V13.01,2013-02-01 20:31:00,
2013-02-01 12:41:00,48.6,43.7,30.25,NNW,344,0.0,0.0,83,0.00,,SKC,0.00,VWS V13.01,2013-02-01 20:41:00,
2013-02-01 12:51:00,49.1,43.5,30.25,WNW,302,0.0,0.0,81,0.00,,SKC,0.00,VWS V13.01,2013-02-01 20:51:00,
2013-02-01 13:01:00,49.6,43.7,30.23,North,8,0.0,0.0,80,0.00,,SKC,0.00,VWS V13.01,2013-02-01 21:01:00,
2013-02-01 13:11:00,50.2,43.3,30.23,North,0,0.0,0.0,77,0.00,,SKC,0.00,VWS V13.01,2013-02-01 21:11:00,
2013-02-01 13:21:00,51.0,43.0,30.23,North,0,0.0,0.0,74,0.00,,SKC,0.00,VWS V13.01,2013-02-01 21:21:00,
2013-02-01 13:31:00,51.4,42.7,30.23,NNW,345,0.0,0.0,72,0.00,,SKC,0.00,VWS V13.01,2013-02-01 21:31:00,
2013-02-01 13:41:00,52.0,42.9,30.23,NNW,333,0.0,0.0,71,0.00,,SKC,0.00,VWS V13.01,2013-02-01 21:41:00,
2013-02-01 13:51:00,52.3,42.5,30.22,NNE,13,0.0,0.0,69,0.00,,SKC,0.00,VWS V13.01,2013-02-01 21:51:00,
2013-02-01 14:01:00,52.8,42.9,30.21,North,0,0.0,0.0,69,0.00,,SKC,0.00,VWS V13.01,2013-02-01 22:01:00,
2013-02-01 14:11:00,53.1,43.2,30.21,North,0,0.0,0.0,69,0.00,,SKC,0.00,VWS V13.01,2013-02-01 22:11:00,
2013-02-01 14:21:00,53.3,43.8,30.21,North,0,0.0,0.0,70,0.00,,SKC,0.00,VWS V13.01,2013-02-01 22:21:00,
2013-02-01 14:31:00,53.2,44.0,30.20,North,4,0.0,0.0,71,0.00,,SKC,0.00,VWS V13.01,2013-02-01 22:31:00,
2013-02-01 14:41:00,53.3,44.2,30.20,NNE,19,0.0,0.0,71,0.00,,SKC,0.00,VWS V13.01,2013-02-01 22:41:00,
2013-02-01 14:51:00,53.5,44.3,30.20,North,358,0.0,0.0,71,0.00,,SKC,0.00,VWS V13.01,2013-02-01 22:51:00,
2013-02-01 15:01:00,53.5,44.3,30.20,North,0,0.0,0.0,71,0.00,,SKC,0.00,VWS V13.01,2013-02-01 23:01:00,
2013-02-01 15:11:00,53.2,43.7,30.20,North,358,0.0,0.0,70,0.00,,SKC,0.00,VWS V13.01,2013-02-01 23:11:00,
2013-02-01 15:21:00,53.1,43.6,30.20,NNW,343,0.0,0.0,70,0.00,,SKC,0.00,VWS V13.01,2013-02-01 23:21:00,
2013-02-01 15:31:00,52.9,43.8,30.19,NNE,20,0.0,0.0,71,0.00,,SKC,0.00,VWS V13.01,2013-02-01 23:31:00,
2013-02-01 15:41:00,52.9,44.1,30.19,North,354,0.0,0.0,72,0.00,,SKC,0.00,VWS V13.01,2013-02-01 23:41:00,
2013-02-01 15:51:00,52.5,43.8,30.19,North,350,0.0,0.0,72,0.00,,SKC,0.00,VWS V13.01,2013-02-01 23:51:00,
2013-02-01 16:01:00,52.2,43.8,30.19,NNW,340,0.0,0.0,73,0.00,,SKC,0.00,VWS V13.01,2013-02-02 00:01:00,
2013-02-01 16:11:00,51.9,43.5,30.19,North,0,0.0,0.0,73,0.00,,SKC,0.00,VWS V13.01,2013-02-02 00:11:00,
2013-02-01 16:21:00,51.7,43.7,30.18,North,0,0.0,0.0,74,0.00,,SKC,0.00,VWS V13.01,2013-02-02 00:21:00,
2013-02-01 16:31:00,51.6,43.6,30.18,North,0,0.0,0.0,74,0.00,,SKC,0.00,VWS V13.01,2013-02-02 00:31:00,
2013-02-01 16:41:00,51.4,43.8,30.18,North,359,0.0,0.0,75,0.00,,SKC,0.00,VWS V13.01,2013-02-02 00:41:00,
2013-02-01 16:51:00,51.3,43.7,30.18,North,0,0.0,0.0,75,0.00,,SKC,0.00,VWS V13.01,2013-02-02 00:51:00,
2013-02-01 17:01:00,51.0,43.4,30.18,North,0,0.0,0.0,75,0.00,,SKC,0.00,VWS V13.01,2013-02-02 01:01:00,
2013-02-01 17:11:00,50.8,43.5,30.18,NNW,327,0.0,0.0,76,0.00,,SKC,0.00,VWS V13.01,2013-02-02 01:11:00,
2013-02-01 17:21:00,50.5,43.6,30.18,North,0,0.0,0.0,77,0.00,,SKC,0.00,VWS V13.01,2013-02-02 01:21:00,
2013-02-01 17:31:00,50.1,43.2,30.18,North,0,0.0,0.0,77,0.00,,SKC,0.00,VWS V13.01,2013-02-02 01:31:00,
2013-02-01 17:41:00,49.6,43.0,30.18,North,0,0.0,0.0,78,0.00,,SKC,0.00,VWS V13.01,2013-02-02 01:41:00,
2013-02-01 17:51:00,49.4,42.8,30.18,North,2,0.0,0.0,78,0.00,,SKC,0.00,VWS V13.01,2013-02-02 01:51:00,
2013-02-01 18:01:00,49.1,42.5,30.19,North,358,0.0,0.0,78,0.00,,SKC,0.00,VWS V13.01,2013-02-02 02:01:00,
2013-02-01 18:11:00,48.8,42.3,30.19,North,359,0.0,0.0,78,0.00,,SKC,0.00,VWS V13.01,2013-02-02 02:11:00,
2013-02-01 18:21:00,48.5,42.0,30.19,North,358,0.0,0.0,78,0.00,,SKC,0.00,VWS V13.01,2013-02-02 02:21:00,
2013-02-01 18:31:00,48.3,42.1,30.20,North,358,0.0,0.0,79,0.00,,SKC,0.00,VWS V13.01,2013-02-02 02:31:00,
2013-02-01 18:41:00,47.7,41.5,30.20,North,358,0.0,0.0,79,0.00,,SKC,0.00,VWS V13.01,2013-02-02 02:41:00,
2013-02-01 18:51:00,47.3,41.5,30.20,NNE,32,0.0,0.0,80,0.00,,SKC,0.00,VWS V13.01,2013-02-02 02:51:00,
2013-02-01 19:01:00,46.8,41.3,30.20,NE,34,0.0,0.0,81,0.00,,SKC,0.00,VWS V13.01,2013-02-02 03:01:00,
2013-02-01 19:11:00,46.2,40.7,30.20,NE,34,0.0,0.0,81,0.00,,SKC,0.00,VWS V13.01,2013-02-02 03:11:00,
2013-02-01 19:21:00,45.7,40.5,30.20,NE,34,0.0,0.0,82,0.00,,SKC,0.00,VWS V13.01,2013-02-02 03:21:00,
2013-02-01 19:31:00,45.2,40.3,30.20,NE,34,0.0,0.0,83,0.00,,SKC,0.00,VWS V13.01,2013-02-02 03:31:00,
2013-02-01 19:41:00,44.8,40.3,30.20,NE,34,0.0,0.0,84,0.00,,SKC,0.00,VWS V13.01,2013-02-02 03:41:00,
2013-02-01 19:51:00,44.5,40.3,30.20,NE,34,0.0,0.0,85,0.00,,SKC,0.00,VWS V13.01,2013-02-02 03:51:00,
2013-02-01 20:01:00,43.9,39.7,30.20,NE,34,0.0,0.0,85,0.00,,SKC,0.00,VWS V13.01,2013-02-02 04:01:00,
2013-02-01 20:11:00,43.6,39.7,30.20,NE,34,0.0,0.0,86,0.00,,SKC,0.00,VWS V13.01,2013-02-02 04:11:00,
2013-02-01 20:21:00,43.3,39.4,30.20,NE,34,0.0,0.0,86,0.00,,SKC,0.00,VWS V13.01,2013-02-02 04:21:00,
2013-02-01 20:31:00,43.1,39.5,30.20,NE,34,0.0,0.0,87,0.00,,SKC,0.00,VWS V13.01,2013-02-02 04:31:00,
2013-02-01 20:41:00,42.9,39.3,30.20,NE,34,0.0,0.0,87,0.00,,SKC,0.00,VWS V13.01,2013-02-02 04:41:00,
2013-02-01 20:51:00,42.5,38.9,30.21,NE,34,0.0,0.0,87,0.00,,SKC,0.00,VWS V13.01,2013-02-02 04:51:00,
2013-02-01 21:01:00,41.9,38.3,30.21,NE,34,0.0,0.0,87,0.00,,SKC,0.00,VWS V13.01,2013-02-02 05:01:00,
2013-02-01 21:11:00,41.6,38.0,30.21,NE,34,0.0,0.0,87,0.00,,SKC,0.00,VWS V13.01,2013-02-02 05:11:00,
2013-02-01 21:21:00,40.9,37.3,30.21,NE,34,0.0,0.0,87,0.00,,SKC,0.00,VWS V13.01,2013-02-02 05:21:00,
2013-02-01 21:31:00,40.5,37.2,30.22,NE,34,0.0,0.0,88,0.00,,SKC,0.00,VWS V13.01,2013-02-02 05:31:00,
2013-02-01 21:41:00,40.1,36.8,30.22,NE,34,0.0,0.0,88,0.00,,SKC,0.00,VWS V13.01,2013-02-02 05:41:00,
2013-02-01 21:51:00,39.8,36.5,30.22,NE,34,0.0,0.0,88,0.00,,SKC,0.00,VWS V13.01,2013-02-02 05:51:00,
2013-02-01 22:01:00,39.3,36.0,30.22,NE,34,0.0,0.0,88,0.00,,SKC,0.00,VWS V13.01,2013-02-02 06:01:00,
2013-02-01 22:11:00,38.9,35.7,30.22,NE,34,0.0,0.0,88,0.00,,SKC,0.00,VWS V13.01,2013-02-02 06:11:00,
2013-02-01 22:21:00,38.8,35.8,30.22,NE,34,0.0,0.0,89,0.00,,SKC,0.00,VWS V13.01,2013-02-02 06:21:00,
2013-02-01 22:31:00,38.9,35.9,30.21,East,84,0.0,0.0,89,0.00,,SKC,0.00,VWS V13.01,2013-02-02 06:31:00,
2013-02-01 22:41:00,38.6,35.6,30.21,East,84,0.0,0.0,89,0.00,,SKC,0.00,VWS V13.01,2013-02-02 06:41:00,
2013-02-01 22:51:00,38.8,36.1,30.21,East,84,0.0,0.0,90,0.00,,SKC,0.00,VWS V13.01,2013-02-02 06:51:00,
2013-02-01 23:01:00,38.8,36.1,30.21,East,84,0.0,0.0,90,0.00,,SKC,0.00,VWS V13.01,2013-02-02 07:01:00,
2013-02-01 23:11:00,38.8,36.1,30.21,East,84,0.0,0.0,90,0.00,,SKC,0.00,VWS V13.01,2013-02-02 07:11:00,
2013-02-01 23:21:00,38.8,36.1,30.21,East,84,0.0,0.0,90,0.00,,SKC,0.00,VWS V13.01,2013-02-02 07:21:00,
2013-02-01 23:31:00,38.6,35.9,30.21,East,84,0.0,0.0,90,0.00,,SKC,0.00,VWS V13.01,2013-02-02 07:31:00,
2013-02-01 23:41:00,38.5,35.8,30.21,East,84,0.0,0.0,90,0.00,,SKC,0.00,VWS V13.01,2013-02-02 07:41:00,
2013-02-01 23:51:00,38.5,35.8,30.21,East,84,0.0,0.0,90,0.00,,SKC,0.00,VWS V13.01,2013-02-02 07:51:00,